Greenville Downtown, SC

9:52 PM EDT on June 24, 2017 (GMT -0400)
Greenville Downtown

Weather History for KGMU - August, 2014

Change the Weather History Date:

Sunday, August 17, 2014

  Actual Average Record
Temperature  
Mean Temperature 80 °F -  
Max Temperature 90 °F 86 °F 97 °F (2007)
Min Temperature 70 °F 68 °F 63 °F (2013)
Cooling Degree Days 14    
Growing Degree Days 30 (Base 50)    
Moisture  
Dew Point 66 °F    
Average Humidity 63    
Maximum Humidity 87    
Minimum Humidity 45    
Precipitation  
Precipitation 0.00 in - - ()
Sea Level Pressure  
Sea Level Pressure 29.99 in    
Wind  
Wind Speed 3 mph (WSW)    
Max Wind Speed 12 mph    
Max Gust Speed -    
Visibility 10 miles    
Events      
Averages and records for this station are not official NWS values.
T = Trace of Precipitation, MM = Missing Value Source: NWS Daily Summary

Daily Weather History Graph

Daily Weather History Graph

Search for Another Location

Airport or City:

Trip Planner

Search our weather history database for the weather conditions in past years. The results will help you decide how hot, cold, wet, or windy it might be!

Date:

Astronomy

Aug. 17, 2014 Rise Set
Actual Time 6:51 AM EDT 8:15 PM EDT
Civil Twilight 6:24 AM EDT 8:41 PM EDT
Nautical Twilight 5:52 AM EDT 9:13 PM EDT
Astronomical Twilight 5:19 AM EDT 9:46 PM EDT
Moon 12:16 AM EDT (8/17) 2:16 PM EDT (8/17)
Length of Visible Light 14h 17m
Length of Day
13h 23m
Waning Gibbous, 48% of the Moon is Illuminated
Aug 17
Waning Gibbous
Aug 25
New
Sep 2
First Quarter
Sep 8
Full
Sep 15
Last Quarter

Hourly Weather History & Observations

Time (EDT) Temp. Heat Index Dew Point Humidity Pressure Visibility Wind Dir Wind Speed Gust Speed Precip Events Conditions
12:53 AM 75.9 °F - 64.9 °F 69% 30.03 in 10.0 mi Calm Calm - N/A   Clear
1:53 AM 75.0 °F - 66.0 °F 73% 30.01 in 10.0 mi NW 3.5 mph - N/A   Clear
3:53 AM 73.9 °F - 66.0 °F 76% 30.00 in 10.0 mi Calm Calm - N/A   Partly Cloudy
4:53 AM 73.0 °F - 66.9 °F 81% 30.00 in 10.0 mi Calm Calm - N/A   Clear
5:53 AM 72.0 °F - 66.9 °F 84% 30.01 in 10.0 mi Calm Calm - N/A   Clear
6:53 AM 70.0 °F - 66.0 °F 87% 30.03 in 10.0 mi Calm Calm - N/A   Clear
7:53 AM 72.0 °F - 66.9 °F 84% 30.03 in 10.0 mi Calm Calm - N/A   Clear
8:53 AM 75.9 °F - 66.9 °F 74% 30.04 in 10.0 mi WSW 5.8 mph - N/A   Clear
9:53 AM 80.1 °F 81.9 °F 64.9 °F 60% 30.03 in 10.0 mi West 6.9 mph - N/A   Clear
10:53 AM 82.9 °F 85.0 °F 66.0 °F 56% 30.03 in 10.0 mi Variable 4.6 mph - N/A   Clear
11:53 AM 84.9 °F 86.1 °F 64.0 °F 49% 30.02 in 10.0 mi WSW 8.1 mph - N/A   Clear
12:53 PM 86.0 °F 87.3 °F 64.0 °F 48% 30.01 in 10.0 mi WSW 11.5 mph - N/A   Clear
1:53 PM 87.1 °F 88.9 °F 64.9 °F 48% 29.99 in 10.0 mi WSW 8.1 mph - N/A   Clear
2:53 PM 88.0 °F 89.3 °F 64.0 °F 45% 29.99 in 10.0 mi West 8.1 mph - N/A   Scattered Clouds
3:53 PM 89.1 °F 91.0 °F 64.9 °F 45% 29.97 in 10.0 mi WSW 8.1 mph - N/A   Partly Cloudy
4:53 PM 87.1 °F 88.9 °F 64.9 °F 48% 29.96 in 10.0 mi SW 8.1 mph - N/A   Clear
5:53 PM 87.1 °F 89.2 °F 66.0 °F 49% 29.96 in 10.0 mi SSW 6.9 mph - N/A   Clear
6:53 PM 84.9 °F 87.1 °F 66.0 °F 53% 29.96 in 10.0 mi WSW 6.9 mph - N/A   Clear
7:53 PM 84.0 °F 86.5 °F 66.9 °F 56% 29.95 in 10.0 mi South 3.5 mph - N/A   Clear
8:53 PM 82.0 °F 84.9 °F 68.0 °F 62% 29.94 in 10.0 mi South 4.6 mph - N/A   Clear
9:53 PM 80.1 °F 82.9 °F 69.1 °F 69% 29.97 in 10.0 mi SW 8.1 mph - N/A   Clear
10:53 PM 77.0 °F - 66.0 °F 69% 29.97 in 10.0 mi WSW 4.6 mph - N/A   Clear
11:53 PM 77.0 °F - 66.0 °F 69% 29.96 in 10.0 mi WSW 3.5 mph - N/A   Clear